Location: Vihti�l�
(61.3833°N, 23.0667°E)
Time: 05:51:03
(UTC+00:00)

Cosmos 1437 Rocket - Pass Details

Date: 29 November 2020
Orbit: 504 x 563 km, 81.2° (Epoch: 22 January)

Event Time Altitude Azimuth Distance (km) Brightness Sun altitude
Exits shadow 02:59:52 28° 47° (NE) 983 4.5 -27.9°
Maximum altitude 03:00:13 29° 58° (ENE) 971 4.5 -27.8°
Drops below altitude 10° 03:03:33 10° 120° (ESE) 1,728 6.0 -27.4°
Sets 03:05:52 0° 132° (SE) 2,606 6.9 -27.2°
